Flag for Australia Weather past 2 weeks in Adelaide, South Australia, Australia

Now
79 °F

Clear.


Feels Like: 78 °F
Forecast: 66 / 93 °F
Wind: 17 mph from East

Location: Adelaide Airport

Current Time: Oct 20, 2014 at 11:59:17 PM

Latest Report: Oct 20, 2014 at 11:30 PM


Visibility: 10 mi

Pressure: 30.12 "Hg

Humidity: 18%

Dew point: 32 °F

Location of AdelaideLocation

Historic Weather in Adelaide — Graph

°F

Adelaide temperature yesterday

Maximum temperature yesterday: 88 °F (at 1:00 PM)
Minimum temperature yesterday: 57 °F (at 2:00 AM)
Average temperature yesterday: 71 °F

Past Weeks' High & Low Weather Summary

 TemperatureHumidityPressure
High90 °F (Oct 20, 4:30 PM)94% (Oct 12, 7:00 AM)30.36 "Hg (Oct 12, 7:00 AM)
Low41 °F (Oct 15, 5:30 AM)5% (Oct 18, 5:30 PM)29.47 "Hg (Oct 6, 1:30 PM)
Average62 °F52%30.08 "Hg
* Reported Oct 5 10:30 PM — Oct 20 10:30 PM, Adelaide, Weather by CustomWeather, © 2014

Note: Actual official high and low records may vary slightly from our data, if they occured in-between our weather recording intervals... More about our weather records

Advertising

Adelaide weather history for previous 24 hours

 ConditionsComfort  
Time TempWeatherWind HumidityBarometerVisibility
10:30 PM
Oct 20
79 °FClear.15 mph20%30.15 "Hg10 mi
10:00 PM77 °FClear.14 mph26%30.15 "Hg10 mi
9:30 PM77 °FClear.14 mph26%30.15 "Hg10 mi
9:00 PM77 °FClear.13 mph26%30.12 "Hg10 mi
8:30 PM75 °FClear.9 mph31%30.12 "Hg10 mi
8:00 PM77 °FClear.8 mph30%30.12 "Hg10 mi
7:30 PM81 °FClear.10 mph26%30.12 "Hg10 mi
7:00 PM84 °FSunny.12 mph22%30.09 "Hg10 mi
6:30 PM86 °FSunny.12 mph20%30.09 "Hg10 mi
6:00 PM86 °FSunny.10 mph19%30.09 "Hg10 mi
5:30 PM88 °FSunny.12 mph19%30.09 "Hg10 mi
5:00 PM90 °FSunny.10 mph18%30.09 "Hg10 mi
4:30 PM90 °FSunny.10 mph18%30.09 "Hg10 mi
4:00 PM86 °FSunny.10 mph31%30.09 "Hg10 mi
3:30 PM82 °FSunny.12 mph35%30.12 "Hg10 mi
1:30 PM75 °FSunny.12 mph41%30.18 "Hg10 mi
1:00 PM73 °FSunny.12 mph41%30.18 "Hg10 mi
12:30 PM73 °FSunny.10 mph44%30.18 "Hg10 mi
12:00 PM73 °FSunny.8 mph44%30.21 "Hg10 mi
11:30 AM72 °FSunny.7 mph44%30.21 "Hg10 mi
11:00 AM70 °FSunny.6 mph46%30.24 "Hg10 mi
10:30 AM68 °FSunny.6 mph49%30.24 "Hg10 mi
10:00 AM66 °FSunny.6 mph52%30.24 "Hg10 mi
9:30 AM64 °FSunny.6 mph56%30.24 "Hg10 mi
9:00 AM64 °FSunny.5 mph52%30.24 "Hg10 mi
8:30 AM63 °FSunny.No wind59%30.24 "Hg10 mi
8:00 AM61 °FSunny.3 mph68%30.24 "Hg10 mi
7:30 AM59 °FSunny.6 mph72%30.21 "Hg10 mi
7:00 AM57 °FSunny.1 mph72%30.21 "Hg10 mi
6:30 AM57 °FOvercast.3 mph72%30.21 "HgN/A
6:00 AM57 °FPartly sunny.5 mph72%30.21 "HgN/A
5:30 AM57 °FOvercast.6 mph72%30.21 "HgN/A
5:00 AM57 °FOvercast.5 mph72%30.18 "HgN/A
4:30 AM57 °FClear.1 mph72%30.18 "Hg10 mi
4:00 AM57 °FClear.7 mph72%30.18 "Hg10 mi
3:30 AM55 °FPassing clouds.3 mph77%30.18 "HgN/A
3:00 AM57 °FPassing clouds.2 mph72%30.18 "HgN/A
2:30 AM57 °FPassing clouds.2 mph77%30.18 "HgN/A
2:00 AM61 °FPassing clouds.7 mph63%30.18 "HgN/A
1:30 AM61 °FPassing clouds.7 mph63%30.18 "HgN/A
1:00 AM63 °FPassing clouds.8 mph59%30.18 "HgN/A
12:30 AM63 °FPassing clouds.17 mph59%30.18 "HgN/A
12:00 AM63 °FPassing clouds.15 mph59%30.18 "HgN/A
11:30 PM
Oct 19
64 °FPassing clouds.14 mph52%30.18 "HgN/A
11:00 PM64 °FPassing clouds.16 mph49%30.18 "HgN/A
Weather by CustomWeather, © 2014

See weather overviewHow to use our weather pages